Location: Newark
(15.4608°S, 41.1635°W)
Time: 23:55:28
(UTC+00:00)

Transit 4A - Pass Details

Date: 09 March 2021
Orbit: 869 x 975 km, 66.8° (Epoch: 16 April)

Event Time Altitude Azimuth Distance (km) Brightness Sun altitude
Rises 21:18:13 0° 17° (NNE) 3,442 10.6 -4.5°
Reaches altitude 10° 21:21:41 10° 38° (NE) 2,506 9.8 -5.3°
Maximum altitude 21:25:05 16° 74° (ENE) 2,112 9.2 -6.1°
Drops below altitude 10° 21:28:29 10° 110° (ESE) 2,522 9.6 -6.9°
Sets 21:31:58 0° 131° (SE) 3,475 10.5 -7.8°
